[[{"header":{"parameterUnit":"m.s-1","parameterCategory":1,"la1":30.2991,"la2":30.254,"lo1":-89.0895,"lo2":-89.0444,"dy":0.0017,"dx":0.0017,"nx":28,"ny":28,"refTime":"2023-09-25T09:00:00:Z","depth":0,"parameterNumber":2,"parameterNumberName":"U-component_of_WINDS"},"data":[0,0,0,0,0,0,0,0,0,0,0,0,0,0,0,0,0,0,0,0,0,0,0,0,0,0,0,0,0,0,0,0,0,0,0,0,0,0,0,0,0,0,0,0,0,0,0,0,0,0,0,0,0,0,0,0,0,0,-1.898,-1.8981,0,-1.8989,-1.8989,-1.8989,-1.8913,-1.8911,-1.8909,-1.8907,-1.8916,-1.8919,-1.8921,0,0,0,0,0,0,0,0,0,0,0,0,0,-1.8897,-1.8899,-1.898,-1.8981,-1.8981,-1.8989,-1.8989,-1.899,-1.8914,-1.8911,-1.8909,-1.8906,-1.8916,-1.8918,-1.8921,0,0,0,0,0,0,0,0,0,0,0,0,0,-1.8922,-1.89,-1.898,-1.8944,-1.8941,-1.8989,-1.8989,-1.899,-1.8914,-1.8911,-1.8908,-1.8905,-1.8915,-1.8918,-1.8921,-1.9006,0,0,-1.8932,-1.8933,0,0,0,0,0,0,0,0,-1.8921,-1.8926,-1.8949,-1.8946,-1.8943,-1.8947,-1.8963,-1.8995,-1.8915,-1.8924,-1.8907,-1.8903,-1.8929,-1.8931,-1.894,-1.9006,-1.9006,-1.8932,-1.8934,-1.8935,-1.8936,0,0,0,0,0,0,0,-1.8919,-1.8925,-1.8984,-1.8949,-1.8946,-1.8927,-1.8927,-1.8969,-1.8944,-1.8923,-1.8918,-1.892,-1.8927,-1.8937,-1.8939,-1.9007,-1.8932,-1.8935,-1.8937,-1.8938,-1.9142,-1.9145,0,0,0,0,0,0,-1.8923,-1.8924,-1.8984,-1.8984,-1.8924,-1.8931,-1.8931,-1.8949,-1.8944,-1.894,-1.8922,-1.8916,-1.8933,-1.8936,-1.894,-1.9037,-1.8935,-1.8938,-1.894,-1.9138,-1.9142,-1.9146,0,0,0,0,0,0,-1.8921,-1.8929,-1.8983,-1.8952,-1.8958,-1.8936,-1.8956,-1.8951,-1.896,-1.8943,-1.8938,-1.8937,-1.893,-1.8935,-1.899,-1.9037,-1.894,-1.8943,-1.9134,-1.9139,-1.9144,-1.9234,0,0,0,0,0,0,-1.8919,-1.8929,-1.8961,-1.8954,-1.896,-1.9034,-1.8959,-1.8953,-1.8966,-1.8958,-1.8956,-1.8952,-1.8928,-1.8985,-1.8993,-1.9039,-1.8946,-1.913,-1.9137,-1.9143,-1.9227,-1.9242,-1.9254,0,0,0,0,0,-1.8916,-1.8986,-1.8963,-1.897,-1.9,-1.9037,-1.904,-1.9011,-1.8971,-1.9002,-1.8991,-1.8952,-1.903,-1.8991,-1.8999,-1.9048,-1.9127,-1.9135,-1.9142,-1.9221,-1.9239,-1.9254,0,0,0,0,0,0,-1.8999,-1.8984,-1.8958,-1.9028,-1.9034,-1.9024,-1.9063,-1.9031,-1.9049,-1.904,-1.9003,-1.9003,-1.9064,-1.9061,-1.9018,-1.9129,-1.9071,-1.9081,-1.9128,-1.9145,-1.9159,-1.9159,-1.8948,0,0,0,0,0,-1.9026,-1.9057,-1.9042,-1.9105,-1.9109,-1.9086,-1.9101,-1.9078,-1.9082,-1.9085,-1.9077,-1.9084,-1.9109,-1.9127,-1.915,-1.9226,-1.9224,-1.9263,-1.9277,-1.9288,-1.9297,-1.9337,-1.9354,-1.9171,-1.9171,-1.9171,0,0,-1.908,-1.9076,-1.9098,-1.9121,-1.9123,-1.9156,-1.9088,-1.9127,-1.9151,-1.909,-1.9142,-1.9137,-1.9141,-1.9207,-1.9235,-1.9206,-1.9347,-1.9298,-1.9307,-1.931,-1.9346,-1.9364,-1.9379,-1.9176,-1.9175,-1.9175,0,0,-1.9197,-1.9197,-1.9249,-1.9252,-1.9256,-1.924,-1.9252,-1.9247,-1.9241,-1.9292,-1.9247,-1.9275,-1.932,-1.9325,-1.9333,-1.9451,-1.9416,-1.9459,-1.9531,-1.957,-1.9585,-1.9597,-1.9639,-1.9655,-1.9468,-1.9468,-1.9469,0,-1.9265,-1.9313,-1.928,-1.9321,-1.9332,-1.9279,-1.9331,-1.9335,-1.9347,-1.9356,-1.9323,-1.9378,-1.9377,-1.9443,-1.9472,-1.948,-1.9493,-1.946,-1.9585,-1.9598,-1.9609,-1.9648,-1.9664,-1.9474,-1.9473,-1.9473,-1.9472,0,-1.9396,-1.943,-1.9471,-1.9483,-1.9499,-1.9545,-1.9519,-1.9539,-1.9514,-1.9501,-1.9553,-1.955,-1.9571,-1.9585,-1.9562,-1.9648,-1.9629,-1.9592,-1.9533,-1.9632,-1.9668,-1.9683,-1.9481,-1.9479,-1.9478,-1.9476,0,0,-1.9566,-1.9558,-1.9574,-1.9578,-1.9578,-1.9603,-1.9647,-1.9667,-1.9685,-1.9694,-1.973,-1.9769,-1.9734,-1.9743,-1.972,-1.9754,-1.9847,-1.9711,-1.9711,-1.9737,-1.9941,-1.997,-1.9988,-1.9823,-1.9826,-1.9828,-1.9941,0,-1.968,-1.9754,-1.9725,-1.9801,-1.9832,-1.9781,-1.9819,-1.9823,-1.9812,-1.9836,-1.9824,-1.9852,-1.9803,-1.9809,-1.984,-1.9829,-1.9887,-1.982,-1.9856,-1.9858,-1.9857,-2.0007,-2.0037,-2.0143,-1.9955,-1.9957,-1.9959,0,-1.9822,-1.9837,-1.9916,-1.991,-1.9922,-1.9957,-1.9972,-1.9996,-1.9999,-1.9989,-1.9999,-1.9968,-2.001,-1.9952,-2.0009,-1.9964,-1.9977,-1.9973,-1.9976,-1.9979,-1.9914,-2.0013,-2.0176,-2.0192,-1.9981,-1.9979,-1.9977,0,-1.9938,-1.9978,-2.003,-2.0035,-2.0029,-2.0055,-2.0053,-2.0053,-2.0067,-2.0081,-2.0089,-2.0108,-2.0118,-2.0133,-2.0108,-2.0068,-2.0169,-2.0108,-2.0161,-2.0162,-2.0185,-2.0184,-2.0353,-2.0193,-2.0193,-2.0193,-2.0192,0,-2.0068,-2.0119,-2.0082,-2.0114,-2.0169,-2.0135,-2.019,-2.0183,-2.0184,-2.0213,-2.0171,-2.02,-2.0164,-2.0189,-2.0169,-2.022,-2.0225,-2.0217,-2.0211,-2.0221,-2.0222,-2.0229,-2.0221,-2.0197,-2.0196,-2.0195,-2.0194,0,-2.0207,-2.0184,-2.0238,-2.0228,-2.0226,-2.0267,-2.0258,-2.0287,-2.0273,-2.0311,-2.0318,-2.0296,-2.0324,-2.0299,-2.0326,-2.0313,-2.0379,-2.0363,-2.0379,-2.0374,-2.0428,-2.0423,-2.0607,-2.0629,-2.0456,-2.0458,-2.0459,0,-2.0291,-2.0329,-2.0322,-2.0339,-2.034,-2.0368,-2.0382,-2.0349,-2.0365,-2.0371,-2.04,-2.0424,-2.0441,-2.0488,-2.0474,-2.0494,-2.0478,-2.0541,-2.048,-2.0489,-2.0478,-2.0476,-2.048,-2.0553,-2.0555,-2.0557,-2.0558,0,-2.0444,-2.043,-2.0452,-2.0469,-2.0486,-2.0498,-2.0507,-2.0523,-2.049,-2.051,-2.0538,-2.0551,-2.0578,-2.0602,-2.0618,-2.0616,-2.0582,-2.0577,-2.059,-2.0601,-2.0608,-2.0605,-2.0412,-2.0573,-2.0572,-2.0571,-2.057,-2.0569,-2.0558,-2.0588,-2.0588,-2.0613,-2.0616,-2.0625,-2.0652,-2.0641,-2.0663,-2.0682,-2.0662,-2.0695,-2.0697,-2.0714,-2.0716,-2.0742,-2.0715,-2.0735,-2.074,-2.0745,-2.0753,-2.0604,-2.0745,-2.0744,-2.0744,-2.0743,-2.0743,0,-2.0707,-2.0705,-2.0728,-2.0741,-2.0761,-2.0726,-2.0734,-2.0752,-2.0782,-2.0786,-2.0804,-2.0836,-2.0859,-2.0847,-2.0866,-2.0889,-2.0874,-2.0896,-2.0894,-2.0894,-2.0775,-2.0762,-2.0908,-2.0908,-2.0907,-2.0907,-2.0907,-2.0907,-2.0788,-2.0838,-2.0824,-2.0875,-2.0872,-2.0904,-2.0911,-2.0919,-2.0922,-2.0959,-2.0978,-2.097,-2.0967,-2.0986,-2.1006,-2.1002,-2.1011,-2.1038,-2.1029,-2.0918,-2.0902,-2.0887,-2.0874,-2.1041,-2.1041,-2.1145,-2.1146,-2.1146]},{"header":{"parameterUnit":"m.s-1","parameterCategory":1,"la1":30.2991,"la2":30.254,"lo1":-89.0895,"lo2":-89.0444,"dy":0.0017,"dx":0.0017,"nx":28,"ny":28,"refTime":"2023-09-25T09:00:00:Z","depth":0,"parameterNumber":3,"parameterNumberName":"V-component_of_WINDS"},"data":[0,0,0,0,0,0,0,0,0,0,0,0,0,0,0,0,0,0,0,0,0,0,0,0,0,0,0,0,0,0,0,0,0,0,0,0,0,0,0,0,0,0,0,0,0,0,0,0,0,0,0,0,0,0,0,0,0,0,-1.8146,-1.8147,0,-1.8249,-1.825,-1.8251,-1.8287,-1.8287,-1.8287,-1.8286,-1.839,-1.8393,-1.8396,0,0,0,0,0,0,0,0,0,0,0,0,0,-1.7978,-1.7981,-1.8146,-1.8147,-1.8149,-1.8249,-1.825,-1.8252,-1.8288,-1.8287,-1.8287,-1.8286,-1.8389,-1.8393,-1.8396,0,0,0,0,0,0,0,0,0,0,0,0,0,-1.8063,-1.7982,-1.8146,-1.8179,-1.8183,-1.8248,-1.825,-1.8252,-1.8288,-1.8287,-1.8286,-1.8286,-1.8388,-1.8392,-1.8397,-1.8437,0,0,-1.8411,-1.8413,0,0,0,0,0,0,0,0,-1.8058,-1.8069,-1.8172,-1.8176,-1.8181,-1.8255,-1.8229,-1.8314,-1.8288,-1.8248,-1.8286,-1.8286,-1.8345,-1.8353,-1.8374,-1.8442,-1.8446,-1.8411,-1.8414,-1.8416,-1.8418,0,0,0,0,0,0,0,-1.8052,-1.8065,-1.8187,-1.8174,-1.8179,-1.8187,-1.8199,-1.8245,-1.8298,-1.8251,-1.8254,-1.8266,-1.8347,-1.8369,-1.8377,-1.8448,-1.8411,-1.8415,-1.8418,-1.842,-1.8552,-1.8553,0,0,0,0,0,0,-1.8041,-1.806,-1.8183,-1.819,-1.8117,-1.8191,-1.8204,-1.8232,-1.8298,-1.8308,-1.8266,-1.8267,-1.8362,-1.8371,-1.838,-1.8431,-1.8416,-1.8421,-1.8423,-1.8552,-1.8553,-1.8553,0,0,0,0,0,0,-1.8037,-1.8052,-1.8179,-1.8126,-1.8142,-1.8194,-1.8226,-1.8234,-1.8256,-1.8309,-1.8319,-1.8279,-1.8362,-1.8374,-1.8422,-1.8435,-1.8423,-1.8427,-1.8551,-1.8552,-1.8553,-1.8533,0,0,0,0,0,0,-1.8032,-1.805,-1.8067,-1.8126,-1.8145,-1.822,-1.8226,-1.8236,-1.8264,-1.8266,-1.8324,-1.8333,-1.8362,-1.8415,-1.8427,-1.8441,-1.8431,-1.855,-1.8551,-1.8553,-1.8533,-1.8533,-1.8534,0,0,0,0,0,-1.8026,-1.8057,-1.8067,-1.8082,-1.8167,-1.8221,-1.8232,-1.8266,-1.8265,-1.8281,-1.8316,-1.8331,-1.8432,-1.842,-1.8434,-1.8449,-1.8549,-1.8551,-1.8553,-1.8533,-1.8533,-1.8534,0,0,0,0,0,0,-1.7997,-1.8065,-1.8078,-1.8128,-1.8169,-1.8227,-1.8249,-1.8265,-1.8306,-1.8307,-1.8346,-1.8359,-1.8404,-1.8432,-1.8417,-1.8491,-1.8491,-1.8496,-1.8471,-1.8473,-1.8473,-1.8465,-1.8434,0,0,0,0,0,-1.7997,-1.8036,-1.8093,-1.8132,-1.8152,-1.8197,-1.8222,-1.8244,-1.8287,-1.8304,-1.8342,-1.8383,-1.8423,-1.845,-1.849,-1.8537,-1.8549,-1.8554,-1.8555,-1.8555,-1.8558,-1.8584,-1.8586,-1.8559,-1.8559,-1.8559,0,0,-1.7997,-1.8038,-1.8061,-1.8127,-1.8161,-1.82,-1.8211,-1.8252,-1.828,-1.831,-1.8359,-1.8387,-1.8435,-1.8483,-1.8506,-1.8507,-1.8568,-1.8557,-1.8557,-1.856,-1.8586,-1.8588,-1.859,-1.856,-1.856,-1.8559,0,0,-1.8016,-1.8052,-1.8088,-1.8121,-1.8173,-1.8202,-1.8211,-1.8267,-1.8287,-1.8336,-1.8359,-1.8393,-1.8463,-1.8496,-1.8522,-1.8552,-1.8567,-1.8564,-1.8566,-1.8591,-1.8593,-1.8595,-1.8605,-1.8608,-1.8567,-1.8567,-1.8567,0,-1.8009,-1.8069,-1.8104,-1.8144,-1.8172,-1.8201,-1.8237,-1.8268,-1.8329,-1.8348,-1.8349,-1.8436,-1.847,-1.8526,-1.8533,-1.8553,-1.8563,-1.8558,-1.859,-1.8592,-1.8595,-1.8605,-1.8609,-1.8566,-1.8566,-1.8566,-1.8567,0,-1.8057,-1.8098,-1.8121,-1.818,-1.821,-1.8248,-1.8288,-1.8315,-1.8334,-1.8363,-1.8412,-1.8454,-1.8503,-1.8518,-1.8538,-1.8576,-1.8575,-1.8582,-1.8584,-1.8596,-1.8606,-1.861,-1.8565,-1.8565,-1.8566,-1.8566,0,0,-1.8061,-1.8139,-1.8147,-1.8173,-1.8231,-1.8263,-1.8302,-1.835,-1.8372,-1.8413,-1.8445,-1.8503,-1.851,-1.8539,-1.8562,-1.8584,-1.8604,-1.8589,-1.859,-1.8589,-1.8647,-1.8641,-1.8645,-1.8614,-1.8615,-1.8616,-1.8643,0,-1.8087,-1.8158,-1.819,-1.8246,-1.8284,-1.8311,-1.8344,-1.8383,-1.8411,-1.8446,-1.8477,-1.8517,-1.8523,-1.8541,-1.8564,-1.8597,-1.8616,-1.8595,-1.8644,-1.8645,-1.8631,-1.8651,-1.8644,-1.8668,-1.8647,-1.8648,-1.8649,0,-1.8127,-1.8169,-1.8228,-1.8281,-1.8298,-1.8327,-1.8374,-1.8407,-1.8451,-1.847,-1.8502,-1.8524,-1.8564,-1.8562,-1.8617,-1.8602,-1.8624,-1.8643,-1.8645,-1.8651,-1.8648,-1.8656,-1.8677,-1.868,-1.8655,-1.8655,-1.8654,0,-1.8123,-1.8194,-1.8238,-1.826,-1.8323,-1.8343,-1.837,-1.8414,-1.844,-1.848,-1.8498,-1.8542,-1.8566,-1.8599,-1.8632,-1.8628,-1.8684,-1.8685,-1.87,-1.8699,-1.871,-1.8709,-1.8734,-1.8725,-1.8725,-1.8725,-1.8724,0,-1.8149,-1.8184,-1.8237,-1.8265,-1.8304,-1.8341,-1.8379,-1.8408,-1.8446,-1.8479,-1.8505,-1.8535,-1.8577,-1.8611,-1.8637,-1.8678,-1.8689,-1.8705,-1.8711,-1.8702,-1.87,-1.8717,-1.8716,-1.8726,-1.8725,-1.8725,-1.8725,0,-1.8152,-1.8189,-1.8239,-1.8294,-1.8309,-1.8336,-1.8383,-1.8409,-1.8438,-1.8479,-1.8491,-1.8536,-1.8578,-1.8614,-1.867,-1.8687,-1.8729,-1.8737,-1.8715,-1.8718,-1.8731,-1.8729,-1.8767,-1.8774,-1.876,-1.876,-1.876,0,-1.8165,-1.8193,-1.8251,-1.8275,-1.8302,-1.834,-1.8367,-1.8404,-1.8431,-1.8483,-1.8503,-1.8547,-1.8585,-1.865,-1.8688,-1.873,-1.8739,-1.8749,-1.8745,-1.8735,-1.8738,-1.8736,-1.8739,-1.8749,-1.8749,-1.8749,-1.8749,0,-1.8186,-1.8202,-1.8241,-1.8286,-1.8318,-1.8355,-1.8393,-1.8411,-1.8454,-1.8483,-1.8527,-1.8556,-1.8612,-1.8655,-1.8701,-1.8728,-1.8746,-1.875,-1.8756,-1.8747,-1.8732,-1.874,-1.8715,-1.8749,-1.8749,-1.8749,-1.8749,-1.8749,-1.8194,-1.822,-1.8264,-1.8306,-1.8338,-1.8373,-1.84,-1.8433,-1.847,-1.8519,-1.8538,-1.8582,-1.8625,-1.8688,-1.8715,-1.875,-1.8752,-1.876,-1.8763,-1.8764,-1.8762,-1.8727,-1.8758,-1.8758,-1.8758,-1.8758,-1.8758,0,-1.8215,-1.8245,-1.8283,-1.8335,-1.8368,-1.8382,-1.8424,-1.845,-1.8489,-1.8527,-1.8563,-1.8612,-1.8654,-1.8694,-1.8738,-1.8757,-1.8766,-1.8768,-1.8766,-1.8772,-1.8758,-1.8748,-1.876,-1.876,-1.876,-1.876,-1.8759,-1.8759,-1.823,-1.8273,-1.8295,-1.8354,-1.8384,-1.8428,-1.8451,-1.8482,-1.8513,-1.8567,-1.8602,-1.8628,-1.8667,-1.8713,-1.8751,-1.8762,-1.8776,-1.8775,-1.8788,-1.8774,-1.8773,-1.8773,-1.8764,-1.8778,-1.8778,-1.88,-1.88,-1.88]}]]